Weather Roundup
Issued by NWS Corpus Christi, TX

Home | Current Version | Previous Version | Text Only | Print | Product List | Glossary On
Versions: 1 2 3 4 5 6 7 8 9 10 11 12 13 14 15 16 17 18 19 20 21 22 23 24 25 26 27 28 29 30 31 32 33 34 35 36 37 38 39 40 41 42 43 44 45 46 47 48 49 50
000
ASUS44 KCRP 011010
HRRCRP

SOUTH TEXAS REGIONAL WEATHER ROUNDUP
NATIONAL WEATHER SERVICE CORPUS CHRISTI TX
500 AM CDT FRI AUG 01 2014


TXZ229>244-011100-
...CORPUS CHRISTI AREA OBSERVATIONS...

CITY           SKY/WX    TMP DP  RH WIND       PRES   REMARKS
CORPUS CHRISTI MOCLDY    79  76  90 S6        29.92S
NAS CORPUS CHR PTCLDY    81  78  91 S10       29.91S
ROCKPORT       MOCLDY    81  76  84 S5        29.93R
KINGSVILLE NAS CLEAR     79  77  94 S9        29.91S
ALICE          CLOUDY    78  75  90 S3        29.91S
FALFURRIAS     CLEAR     66  32  28 SE6       29.90S
$$

...VICTORIA AREA OBSERVATIONS...

CITY           SKY/WX    TMP DP  RH WIND       PRES   REMARKS
VICTORIA       MOCLDY    82  77  84 CALM      29.96S HX  90
BEEVILLE       CLOUDY    81  75  82 CALM      29.95S
PLEASANTON     PTCLDY    79  68  69 NE8       29.96S
SAN ANTONIO    CLOUDY    79  64  60 NE8       30.00R
$$

...LAREDO AREA OBSERVATIONS...

CITY           SKY/WX    TMP DP  RH WIND       PRES   REMARKS
LAREDO         MOCLDY    82  72  72 E7        29.93F
COTULLA        MOCLDY    81  72  74 E7        29.94S
DEL RIO        CLEAR     79  66  64 N6        29.96R
MCALLEN        PTCLDY    81  76  84 SE8       29.91S
HEBBRONVILLE   PTCLDY    77  73  85 SE6       29.93S
$$

...OTHER TEXAS OBSERVATIONS...

CITY           SKY/WX    TMP DP  RH WIND       PRES   REMARKS
BROWNSVILLE    CLEAR     79  76  90 S9        29.90F
HOUSTON        MOCLDY    75  74  96 W6        29.94R
COL. STATION   CLOUDY    72  68  87 NW6       29.97S
AUSTIN         MOCLDY    76  65  68 N10       30.00S
WACO           CLOUDY    72  65  78 N10       30.00S
FORT WORTH     CLOUDY    71  66  84 NE9       30.01R
WICHITA FALLS  PTCLDY    68  66  93 CALM      30.06R
LUBBOCK        MOCLDY    64  58  80 S3        30.16F
EL PASO        CLOUDY    67  62  84 N20       30.17S
$$

...MARINE OBSERVATIONS...

STATION/POSITION TIME  SKY/WX   TEMP    WIND        PRES    VSBY  WAVE   SWELL
                                AIR SEA DIR/SP/G                  HT/PER HT/PER
                 (UTC)          (F)     (DEG/KT/KT) (MB)    (MI)  (FT/S) (FT/S)
PORT ARANSAS     1000            80 83  170/  9/ 10 1013.7F
BUOY 90 E PORT A 1000            83 83  200/ 12/ 16 1014.0R         3/ 6
BUOY 45 SE BAFFI 1000            83 84  180/ 16/ 17 1012.8R         3/ 5
BUOY 200 E PT IS 1000            84 86  170/ 10/ 10 1013.7R         1/ 5
BUOY 15 E GALVES NOT AVBL
$$


USA.gov is the U.S. government's official web portal to all federal, state and local government web resources and services.